BCS406 LIMC-EDDK

Flight info

Callsign BCS406
Flight time N/A
Altitude 34000
Route AOSTA DCT ORSUD DCT MOLUS DCT GILIR DCT PENDU DCT IXILU DCT GIVOR DCT SORAL DCT IBERA N853 ARCKY T853 IBESA T860 ERUKI ERUKI1G
Aircraft B738/M-SDE2E3FGHIRWXY/LB1

Departure

Time 2026-05-01 14:56
Airport Milan Malpensa International Airport (LIMC)

Arrival

Time N/A
Airport Cologne Bonn Airport (EDDK)
Time Latitude Longitude Altitude Speed Heading
2026-05-01 14:38 45.61756 8.71935 721 ft 0 kts 259°
2026-05-01 14:45 45.61757 8.71942 722 ft 2 kts 259°
2026-05-01 14:45 45.61763 8.71984 721 ft 2 kts 259°
2026-05-01 14:45 45.61766 8.72006 721 ft 2 kts 259°
2026-05-01 14:46 45.61768 8.72026 721 ft 2 kts 259°
2026-05-01 14:46 45.61777 8.72059 721 ft 2 kts 219°
2026-05-01 14:46 45.61791 8.72068 721 ft 2 kts 187°
2026-05-01 14:47 45.61799 8.72068 721 ft 1 kts 169°
2026-05-01 14:47 45.61805 8.72066 721 ft 0 kts 169°
2026-05-01 14:48 45.61801 8.72067 721 ft 2 kts 169°
2026-05-01 14:49 45.61616 8.72117 716 ft 14 kts 168°
2026-05-01 14:49 45.61404 8.72176 709 ft 17 kts 169°
2026-05-01 14:50 45.61233 8.72223 702 ft 18 kts 168°
2026-05-01 14:50 45.61044 8.72407 694 ft 12 kts 79°
2026-05-01 14:51 45.61059 8.72521 694 ft 11 kts 78°
2026-05-01 14:51 45.61092 8.72759 692 ft 11 kts 79°
2026-05-01 14:52 45.61124 8.72990 690 ft 13 kts 77°
2026-05-01 14:52 45.61177 8.73085 689 ft 12 kts 37°
2026-05-01 14:52 45.61311 8.73218 690 ft 10 kts 31°
2026-05-01 14:53 45.61365 8.73256 692 ft 6 kts 18°
2026-05-01 14:53 45.61411 8.73267 693 ft 9 kts 358°
2026-05-01 14:53 45.61475 8.73250 695 ft 10 kts 349°
2026-05-01 14:53 45.61549 8.73230 697 ft 9 kts 348°
2026-05-01 14:54 45.61605 8.73239 698 ft 7 kts 39°
2026-05-01 14:54 45.61630 8.73343 696 ft 15 kts 78°
2026-05-01 14:54 45.61612 8.73488 696 ft 15 kts 119°
2026-05-01 14:54 45.61595 8.73631 695 ft 14 kts 81°
2026-05-01 14:55 45.61646 8.73722 698 ft 12 kts
2026-05-01 14:55 45.61900 8.73661 703 ft 79 kts 349°
2026-05-01 14:55 45.62724 8.73433 728 ft 158 kts 351°
2026-05-01 14:55 45.63869 8.73101 1329 ft 183 kts 349°
2026-05-01 14:56 45.65183 8.72754 2167 ft 202 kts 354°
2026-05-01 14:56 45.66619 8.72624 2934 ft 215 kts
2026-05-01 14:56 45.68153 8.72620 3686 ft 230 kts
2026-05-01 14:56 45.69750 8.72623 4655 ft 234 kts
2026-05-01 14:57 45.71394 8.72161 5367 ft 252 kts 338°
2026-05-01 14:57 45.73922 8.68541 6950 ft 278 kts 298°
2026-05-01 14:57 45.74737 8.66055 7944 ft 282 kts 295°
2026-05-01 14:58 45.75557 8.63519 8922 ft 285 kts 297°
2026-05-01 14:58 45.76421 8.61002 9864 ft 289 kts 298°
2026-05-01 14:58 45.77340 8.58438 10710 ft 296 kts 298°
2026-05-01 14:58 45.78322 8.55748 11308 ft 312 kts 299°
2026-05-01 14:59 45.79356 8.52924 11880 ft 329 kts 299°
2026-05-01 14:59 45.80432 8.49982 12449 ft 343 kts 299°
2026-05-01 14:59 45.81541 8.46936 13331 ft 348 kts 298°
2026-05-01 14:59 45.82658 8.43857 14183 ft 353 kts 298°
2026-05-01 15:00 45.84932 8.37578 15910 ft 361 kts 299°
2026-05-01 15:00 45.86092 8.34370 16713 ft 366 kts 298°
2026-05-01 15:00 45.87253 8.31158 17531 ft 370 kts 298°
2026-05-01 15:01 45.88451 8.27840 18372 ft 374 kts 299°
2026-05-01 15:01 45.89627 8.24575 19132 ft 378 kts 299°
2026-05-01 15:01 45.90837 8.21214 19941 ft 381 kts 299°
2026-05-01 15:01 45.92060 8.17814 20692 ft 385 kts 299°
2026-05-01 15:02 45.93276 8.14429 21442 ft 389 kts 299°
2026-05-01 15:02 45.93692 8.13305 21688 ft 389 kts 301°
2026-05-01 15:02 45.96431 8.08188 22897 ft 390 kts 319°
2026-05-01 15:02 45.98567 8.05797 23548 ft 392 kts 329°
2026-05-01 15:03 46.01020 8.04011 24202 ft 394 kts 340°
2026-05-01 15:03 46.03639 8.02859 24854 ft 395 kts 347°
2026-05-01 15:03 46.06316 8.01992 25431 ft 399 kts 348°
2026-05-01 15:03 46.09033 8.01071 26013 ft 403 kts 346°
2026-05-01 15:04 46.11721 7.99979 26592 ft 407 kts 343°
2026-05-01 15:04 46.14262 7.98766 27116 ft 410 kts 341°
2026-05-01 15:04 46.16954 7.97332 27689 ft 413 kts 340°
2026-05-01 15:04 46.19638 7.95808 28197 ft 418 kts 339°
2026-05-01 15:05 46.22295 7.94247 28717 ft 421 kts 338°
2026-05-01 15:05 46.25022 7.92616 29271 ft 423 kts 338°
2026-05-01 15:05 46.27724 7.90982 30070 ft 418 kts 338°
2026-05-01 15:05 46.30353 7.89385 30791 ft 415 kts 337°
2026-05-01 15:06 46.32977 7.87787 31354 ft 416 kts 337°
2026-05-01 15:06 46.35645 7.86160 31897 ft 416 kts 337°
2026-05-01 15:06 46.38286 7.84548 32491 ft 414 kts 337°
2026-05-01 15:06 46.40959 7.82916 33114 ft 412 kts 337°
2026-05-01 15:07 46.43569 7.81322 33617 ft 412 kts 337°
2026-05-01 15:07 46.46187 7.79721 34106 ft 412 kts 337°
2026-05-01 15:07 46.48853 7.78090 34314 ft 416 kts 337°
2026-05-01 15:08 46.54107 7.74869 34309 ft 411 kts 337°
2026-05-01 15:08 46.59311 7.71674 34316 ft 411 kts 337°
2026-05-01 15:09 46.64560 7.68444 34322 ft 411 kts 337°
2026-05-01 15:09 46.69817 7.65202 34303 ft 412 kts 337°
2026-05-01 15:10 46.75078 7.61951 34296 ft 413 kts 337°
2026-05-01 15:10 46.82987 7.57052 34280 ft 413 kts 336°
2026-05-01 15:11 46.90859 7.52161 34266 ft 414 kts 336°
2026-05-01 15:12 46.96106 7.48890 34259 ft 414 kts 336°
2026-05-01 15:12 47.04018 7.43945 34259 ft 416 kts 336°
2026-05-01 15:14 47.17085 7.35744 34275 ft 417 kts 336°
2026-05-01 15:14 47.25043 7.30729 34282 ft 418 kts 336°
2026-05-01 15:15 47.35700 7.23987 34261 ft 420 kts 335°
2026-05-01 15:16 47.46366 7.17209 34253 ft 421 kts 336°
2026-05-01 15:18 47.59795 7.08633 34237 ft 421 kts 336°
2026-05-01 15:19 47.70501 7.01760 34242 ft 422 kts 336°
2026-05-01 15:19 47.78573 6.96559 34247 ft 421 kts 336°
2026-05-01 15:20 47.86601 6.91366 34254 ft 421 kts 336°
2026-05-01 15:21 47.91951 6.87895 34256 ft 421 kts 336°
2026-05-01 15:21 47.97348 6.84386 34257 ft 423 kts 336°
2026-05-01 15:22 48.05397 6.79147 34255 ft 422 kts 336°
2026-05-01 15:22 48.10713 6.75672 34248 ft 423 kts 336°
2026-05-01 15:23 48.15964 6.72231 34242 ft 423 kts 336°
2026-05-01 15:23 48.21330 6.68707 34241 ft 421 kts 336°
2026-05-01 15:24 48.26711 6.65165 34237 ft 423 kts 336°
2026-05-01 15:24 48.32068 6.61630 34232 ft 423 kts 336°
2026-05-01 15:25 48.37461 6.58065 34226 ft 424 kts 336°
2026-05-01 15:25 48.42820 6.54515 34229 ft 423 kts 336°
2026-05-01 15:26 48.48206 6.50938 34224 ft 423 kts 336°
2026-05-01 15:26 48.53593 6.47351 34225 ft 424 kts 336°
2026-05-01 15:27 48.58976 6.43760 34228 ft 424 kts 336°
2026-05-01 15:28 48.67311 6.39494 34233 ft 425 kts 354°
2026-05-01 15:28 48.73209 6.39533 34234 ft 425 kts
2026-05-01 15:29 48.82032 6.40588 34234 ft 424 kts
2026-05-01 15:30 48.92786 6.41833 34235 ft 424 kts
2026-05-01 15:31 49.11325 6.43290 34235 ft 422 kts 355°
2026-05-01 15:32 49.22592 6.39444 34231 ft 421 kts 344°
2026-05-01 15:34 49.39336 6.32299 34238 ft 422 kts 344°